WetterOnline ( http://www.wetteronline.de )

Wetter aktuell Darß/Zingst

Aktuelles Wetter: Barth (7m)

6-stündlich | Neueste Meldungen
Ortszeit Temperatur Wetter
Mi, 21.02. 7:00 -6.2° C Nebel
Mi, 21.02. 1:00 1.1° C bedeckt
Di, 20.02. 19:00 -0.7° C wolkenlos
Di, 20.02. 13:00 3.1° C wolkenlos
Di, 20.02. 7:00 -2.7° C wolkenlos
Di, 20.02. 1:00 -0.8° C bewölkt
Mo, 19.02. 19:00 1.7° C bedeckt
Mo, 19.02. 13:00 3.3° C wolkig
Ortszeit Temperatur Wetter
Mi, 21.02. 8:10 -4.3° C wolkig
Mi, 21.02. 8:00 -4.4° C Nebel
Mi, 21.02. 7:50 -4.4° C Nebel
Mi, 21.02. 7:40 -4.7° C Nebel
Mi, 21.02. 7:30 -5.2° C Nebel
Mi, 21.02. 7:20 -5.2° C Nebel
Mi, 21.02. 7:00 -6.2° C Nebel
Mi, 21.02. 6:30 -5.3° C Nebel
Mi, 21.02. 6:00 -5.5° C Nebel
Mi, 21.02. 5:30 -5.7° C Nebel
Mi, 21.02. 5:00 -3.9° C bewölkt
Ortszeit Relative Feuchte Sichtweite
Mi, 21.02. 7:00 95% 100 m
Mi, 21.02. 1:00 84% 7 km
Di, 20.02. 19:00 81% 10 km
Di, 20.02. 13:00 57% 11 km
Di, 20.02. 7:00 92% 3.2 km
Di, 20.02. 1:00 90% 4.6 km
Mo, 19.02. 19:00 81% 7 km
Mo, 19.02. 13:00 71% 9 km
Ortszeit Relative Feuchte Sichtweite
Mi, 21.02. 8:10 95% -
Mi, 21.02. 8:00 100% 0.7 km
Mi, 21.02. 7:50 100% -
Mi, 21.02. 7:40 99% -
Mi, 21.02. 7:30 98% 0.6 km
Mi, 21.02. 7:20 98% -
Mi, 21.02. 7:00 95% 100 m
Mi, 21.02. 6:30 98% 0.2 km
Mi, 21.02. 6:00 98% 100 m
Mi, 21.02. 5:30 98% 100 m
Mi, 21.02. 5:00 99% 1.7 km
Ortszeit Niederschlagsmenge Niederschlagsart
Mi, 21.02. 7:00 0.0 l/m2 in 12 Std. -
Mi, 21.02. 1:00 0.0 l/m2 in 6 Std. -
Di, 20.02. 19:00 0.0 l/m2 in 12 Std. -
Di, 20.02. 13:00 0.0 l/m2 in 6 Std. -
Di, 20.02. 7:00 0.0 l/m2 in 12 Std. -
Di, 20.02. 1:00 0.0 l/m2 in 6 Std. -
Mo, 19.02. 19:00 0.0 l/m2 in 12 Std. -
Mo, 19.02. 13:00 0.0 l/m2 in 6 Std. -
Ortszeit Niederschlagsmenge Niederschlagsart
Mi, 21.02. 8:10 keine Meldung -
Mi, 21.02. 8:00 0.0 l/m2 in 1 Std. -
Mi, 21.02. 7:50 keine Meldung -
Mi, 21.02. 7:40 keine Meldung -
Mi, 21.02. 7:30 0.0 l/m2 in 1 Std. -
Mi, 21.02. 7:20 keine Meldung -
Mi, 21.02. 7:00 0.0 l/m2 in 1 Std. -
Mi, 21.02. 6:30 0.0 l/m2 in 1 Std. -
Mi, 21.02. 6:00 0.0 l/m2 in 1 Std. -
Mi, 21.02. 5:30 0.0 l/m2 in 1 Std. -
Mi, 21.02. 5:00 0.0 l/m2 in 1 Std. -
Ortszeit Stärke Spitze Richtung
km/h Bft. km/h Grad Sektor
Mi, 21.02. 7:00 2 1 15 300° NW
Mi, 21.02. 1:00 11 2 18 50° NO
Di, 20.02. 19:00 9 2 43 60° NO
Di, 20.02. 13:00 22 4 40 110° O
Di, 20.02. 7:00 13 3 20 90° O
Di, 20.02. 1:00 11 2 18 100° O
Mo, 19.02. 19:00 7 2 15 130° SO
Mo, 19.02. 13:00 9 2 19 190° S
Ortszeit Stärke Spitze Richtung
km/h Bft. km/h Grad Sektor
Mi, 21.02. 8:10 4 1 - 220° SW
Mi, 21.02. 8:00 4 1 4 180° S
Mi, 21.02. 7:50 4 1 - 180° S
Mi, 21.02. 7:40 4 1 - 200° S
Mi, 21.02. 7:30 0 0 4 - -
Mi, 21.02. 7:20 0 0 - 300° NW
Mi, 21.02. 7:00 2 1 4 300° NW
Mi, 21.02. 6:30 2 1 4 350° N
Mi, 21.02. 6:00 4 1 4 320° NW
Mi, 21.02. 5:30 0 0 4 - -
Mi, 21.02. 5:00 2 1 6 340° N
Ortszeit Untergrenze Bedeckung Gattung
total tief tief mittel hoch
Mi, 21.02. 7:00 7200 m 8/8 0/8 - - -
Mi, 21.02. 1:00 1230 m 8/8 8/8 - - -
Di, 20.02. 19:00 - 0/8 0/8 - - -
Di, 20.02. 13:00 - 0/8 0/8 - - -
Di, 20.02. 7:00 - 0/8 0/8 - - -
Di, 20.02. 1:00 2400 m 7/8 8/8 - - -
Mo, 19.02. 19:00 990 m 8/8 8/8 - - -
Mo, 19.02. 13:00 2700 m 8/8 8/8 - - -
Ortszeit Bedeckungsgrad in Achtel und Wolkenuntergrenze
Mi, 21.02. 8:10 1(210m) 8(6000m) 8(6900m)
Mi, 21.02. 8:00 7(1410m) 7(6900m) 7(7800m)
Mi, 21.02. 7:50 7(1410m) 7(6900m) 7(7800m)
Mi, 21.02. 7:40 5(1410m) 6(7500m) 7(8100m)
Mi, 21.02. 7:30 1(1800m) 4(7200m) 6(8100m)
Mi, 21.02. 7:20 1(1800m) 4(7200m) 6(8100m)
Mi, 21.02. 7:00 8(7200m) 8(8100m) 8(9000m)
Mi, 21.02. 6:30 1(510m) 8(7200m) 8(7800m)
Mi, 21.02. 6:00 8(7200m) 8(8700m) 8(8700m)
Mi, 21.02. 5:30 1(1350m) 8(6900m) 8(7800m)
Mi, 21.02. 5:00 7(1350m) 7(6900m) 7(7800m)
Ortszeit Luftdruck NN (hPa) Tendenz (hPa in 3 Std.)
Mi, 21.02. 7:00 1027 + 0,1
Mi, 21.02. 1:00 1026 + 0,8
Di, 20.02. 19:00 1025 + 1,4
Di, 20.02. 13:00 1023 + 0,2
Di, 20.02. 7:00 1022 + 0,5
Di, 20.02. 1:00 1021 + 0,7
Mo, 19.02. 19:00 1021 + 0,4
Mo, 19.02. 13:00 1021 - 0,8
Ortszeit Luftdruck NN (hPa) Tendenz (hPa in 3 Std.)
Mi, 21.02. 8:10 1027 keine Meldung
Mi, 21.02. 8:00 1027 + 0,1
Mi, 21.02. 7:50 1027 keine Meldung
Mi, 21.02. 7:40 1027 keine Meldung
Mi, 21.02. 7:30 1027 + 0,2
Mi, 21.02. 7:20 1027 keine Meldung
Mi, 21.02. 7:00 1027 + 0,1
Mi, 21.02. 6:30 1027 + 0,2
Mi, 21.02. 6:00 1027 + 0,1
Mi, 21.02. 5:30 1027 0,0
Mi, 21.02. 5:00 1027 0,0
Ortszeit Schneehöhe (cm)
Mi, 21.02. 7:00 -
Mi, 21.02. 1:00 -
Di, 20.02. 19:00 -
Di, 20.02. 13:00 -
Di, 20.02. 7:00 -
Di, 20.02. 1:00 -
Mo, 19.02. 19:00 -
Mo, 19.02. 13:00 -
Ortszeit Schneehöhe (cm)
Mi, 21.02. 8:10 -
Mi, 21.02. 8:00 -
Mi, 21.02. 7:50 -
Mi, 21.02. 7:40 -
Mi, 21.02. 7:30 -
Mi, 21.02. 7:20 -
Mi, 21.02. 7:00 -
Mi, 21.02. 6:30 -
Mi, 21.02. 6:00 -
Mi, 21.02. 5:30 -
Mi, 21.02. 5:00 -
Link zu dieser Seite / Seite empfehlen

Das Wetter in ...